Regional Weather Roundup
Issued by NWS

Home | Current Version | Previous Version | Text Only | Print | Product List | Glossary On
Versions: 1 2 3 4 5 6 7 8 9 10 11 12 13 14 15 16 17 18 19 20 21 22 23 24 25 26 27 28 29 30 31 32 33 34 35 36 37 38 39 40 41 42 43 44 45 46 47 48 49 50
000
ASUS43 KLMK 271102
RWRKY
KENTUCKY REGIONAL WEATHER ROUNDUP
NATIONAL WEATHER SERVICE LOUISVILLE KY
700 AM EDT FRI MAY 27 2016

NOTE "FAIR" INDICATES FEW OR NO CLOUDS BELOW 12,000 FEET
WITH NO SIGNIFICANT WEATHER AND/OR OBSTRUCTIONS TO VISIBILITY.

KYZ001>023-026-027-061>063-070>075-271200-
WESTERN AND SOUTH CENTRAL KENTUCKY

CITY           SKY/WX    TMP DP  RH WIND       PRES   REMARKS
PADUCAH        CLOUDY    68  64  87 SE8       29.92S
HENDERSON      CLOUDY    66  61  82 CALM      29.96F
OWENSBORO      PTCLDY    67  66  96 S7        29.99S
HOPKINSVILLE   NOT AVBL
BOWLING GREEN  FOG       62  61  96 SE3       30.03R VSB 3/4
GLASGOW        NOT AVBL
$$

KYZ024-025-028>034-038-045-046-053-271200-
NORTH CENTRAL KENTUCKY

CITY           SKY/WX    TMP DP  RH WIND       PRES   REMARKS
LOUISVILLE/SDF CLOUDY    65  62  90 SE5       30.02R
LOUISVILLE/LOU CLEAR     65  62  90 CALM      30.03S
FORT KNOX      PTCLDY    63  63 100 E5        30.00F
$$

KYZ035>037-039>044-047>052-055>060-089>105-271200-
NORTHEAST KENTUCKY

CITY           SKY/WX    TMP DP  RH WIND       PRES   REMARKS
LEXINGTON      CLOUDY    64  61  90 S3        30.06R
COVINGTON      MOCLDY    61  61 100 S6        30.04R
FRANKFORT      CLOUDY    63  60  90 SE3       30.04R
$$

KYZ054-064>069-076>088-106>120-271200-
SOUTHEAST KENTUCKY

CITY           SKY/WX    TMP DP  RH WIND       PRES   REMARKS
JACKSON        MOCLDY    66  61  84 CALM      30.10R
LONDON         CLEAR     61  59  93 CALM      30.10R
SOMERSET       NOT AVBL
MIDDLESBORO    NOT AVBL
MONTICELLO     SUNNY     63  61  93 W10       30.10R
$$




USA.gov is the U.S. government's official web portal to all federal, state and local government web resources and services.